Weather in Mirnoe

Russia / Republic of Crimea     44°58′46″N   34°03′56″E
temp.,
°C
wind,
m/s
gust,
m/s
humid.,
%
clouds,
%
prec.,
mm/h
press.,
hPa
HPBL,
m
22 january, sat
sat2200:00−1sw1276100 0.0 101647
03:00−1s3373100 0.0 101567
06:00−3sse3473100 0.0 101559
09:00−1se2269100 0.1 101575
12:00−1s129387 1.8 1016280
15:000nnw2270100 2.2 1014597
18:00−2n1183100 0.1 101512
21:00−2ne2479100 0.1 1016116
23 january, sun
sun2300:00−3ne2380100 0.0 101689
03:00−3nne2479100 0.0 1016188
06:00−3ne248480 0.0 1016179
09:00−3nne2583100 0.0 1016240
12:00−1nne4568100 0.0 1016763
15:00−1nne4562100 0.0 1016973
18:00−3nne4685100 0.1 1017520
21:00−3nnw4896100 0.9 1018461
24 january, mon
mon2400:00−3n4897100 1.3 1018491
03:00−3n3891100 1.9 1019629
06:00−5nnw1394100 0.1 1020125
09:00−4w2395100 0.4 1022253
12:00−3wnw3486100 0.3 1023707
15:00−3wnw3485100 0.5 1024470
18:00−5sw229491 0.1 102431
21:00−3sw2497100 0.4 1025235
25 january, tue
tue2500:00−4ssw2497100 0.4 1025104
03:00−4s259799 0.7 1025164
06:00−4s359476 0.3 102597
09:00−4sse238966 0.3 102645
12:000sw357738 0.0 1025630
15:00+1wsw247538 0.0 1024912
18:00−3se11867 0.0 102410
21:00−5se22898 0.0 102412
26 january, wed
wed2600:00−6se11915 0.0 102411
03:00−7se21915 0.0 102311
06:00−6se22905 0.0 102219
09:00−5sse228958 0.0 102125
12:00−1wsw22795 0.0 1020271
15:000w247855 0.0 1018661
18:00−2sw119288 0.1 101928
21:00−4s229576 0.1 101925